TimeCST,TemperatureF,Dew PointF,Humidity,Sea Level PressureIn,VisibilityMPH,Wind Direction,Wind SpeedMPH,Gust SpeedMPH,PrecipitationIn,Events,Conditions,WindDirDegrees,DateUTC
12:51 AM,64.0,57.9,80,29.89,10.0,Calm,Calm,-,N/A,,Clear,0,2011-11-07 06:51:00
1:51 AM,68.0,62.1,81,29.88,10.0,SSE,6.9,-,N/A,,Mostly Cloudy,160,2011-11-07 07:51:00
2:51 AM,70.0,63.0,78,29.88,10.0,South,5.8,-,N/A,,Mostly Cloudy,170,2011-11-07 08:51:00
3:23 AM,69.8,62.6,78,29.93,10.0,SSE,10.4,-,N/A,,Scattered Clouds,160,2011-11-07 09:23:00
3:51 AM,70.0,63.0,78,29.86,10.0,SSE,9.2,-,N/A,,Partly Cloudy,150,2011-11-07 09:51:00
4:51 AM,70.0,63.0,78,29.85,10.0,SSE,8.1,-,N/A,,Mostly Cloudy,150,2011-11-07 10:51:00
5:39 AM,69.8,62.6,78,29.91,10.0,SE,8.1,-,N/A,,Scattered Clouds,140,2011-11-07 11:39:00
5:51 AM,69.1,63.0,81,29.86,10.0,SE,5.8,-,N/A,,Mostly Cloudy,140,2011-11-07 11:51:00
6:51 AM,69.1,63.0,81,29.88,10.0,SSE,5.8,-,N/A,,Overcast,160,2011-11-07 12:51:00
10:51 AM,79.0,63.0,58,29.86,10.0,South,21.9,32.2,N/A,,Mostly Cloudy,180,2011-11-07 16:51:00
11:51 AM,80.6,62.6,54,29.90,10.0,South,23.0,29.9,N/A,,Mostly Cloudy,180,2011-11-07 17:51:00
12:51 PM,82.9,61.0,47,29.80,10.0,South,18.4,27.6,N/A,,Partly Cloudy,170,2011-11-07 18:51:00
1:51 PM,82.9,60.1,46,29.77,10.0,South,20.7,29.9,N/A,,Scattered Clouds,180,2011-11-07 19:51:00
2:51 PM,81.0,57.9,45,29.74,10.0,South,18.4,28.8,N/A,,Partly Cloudy,180,2011-11-07 20:51:00
3:51 PM,82.0,57.9,44,29.74,10.0,South,19.6,27.6,N/A,,Scattered Clouds,170,2011-11-07 21:51:00
4:51 PM,79.0,59.0,50,29.74,10.0,SSE,20.7,28.8,N/A,,Clear,150,2011-11-07 22:51:00
5:51 PM,77.0,59.0,54,29.77,10.0,SSE,11.5,-,N/A,,Clear,160,2011-11-07 23:51:00
6:51 PM,75.0,60.1,60,29.79,10.0,South,12.7,17.3,N/A,,Clear,170,2011-11-08 00:51:00
7:51 PM,73.0,62.1,68,29.79,10.0,SSE,12.7,25.3,N/A,,Clear,160,2011-11-08 01:51:00
8:51 PM,72.0,62.1,71,29.77,10.0,SSE,16.1,26.5,N/A,,Clear,160,2011-11-08 02:51:00
9:51 PM,71.1,63.0,75,29.77,10.0,South,18.4,27.6,N/A,,Clear,170,2011-11-08 03:51:00